1514660400.19,17990,6.06,72372.5,-9.59,-15.81,-20.19,0,*54
1514660401.44,17991,6.06,72372.0,-9.61,-15.81,-20.05,0,*53
1514660402.7,17992,6.06,72374.0,-9.61,-16.03,-20.35,0,*5A
1514660403.98,17993,6.06,72380.3,-9.61,-16.13,-20.35,0,*5A
1514660405.24,17994,6.06,72382.3,-9.61,-15.99,-20.19,0,*52
1514660406.49,17995,6.06,72376.0,-9.61,-16.03,-20.19,0,*53
1514660407.76,17996,6.06,72376.0,-9.61,-16.27,-20.39,0,*54
1514660409.0,17997,6.06,72382.5,-9.59,-16.41,-20.49,0,*59
1514660410.23,17998,6.06,72386.3,-9.59,-16.31,-20.39,0,*56
1514660411.51,17999,6.06,72384.8,-9.61,-16.31,-20.35,0,*50
1514660412.75,18000,6.06,72386.3,-9.61,-16.45,-20.39,0,*59
1514660413.98,18001,6.06,72380.8,-9.59,-16.45,-20.49,0,*54
1514660415.19,18002,6.06,72386.5,-9.59,-16.75,-20.69,0,*56
1514660416.48,18003,6.06,72380.8,-9.61,-17.03,-20.99,0,*53
1514660417.76,18004,6.06,72386.8,-9.61,-17.07,-20.99,0,*50
1514660419.02,18005,6.06,72388.0,-9.61,-17.21,-21.13,0,*56
1514660420.28,18006,6.06,72388.5,-9.61,-17.21,-21.13,0,*55
1514660421.5,18007,6.06,72386.3,-9.61,-17.31,-21.13,0,*55
1514660422.76,18008,6.06,72382.0,-9.61,-17.35,-21.03,0,*5F
1514660424.02,18009,6.06,72376.5,-9.61,-17.45,-21.13,0,*58
1514660425.28,18010,6.06,72378.0,-9.61,-17.59,-21.17,0,*59
1514660426.54,18011,6.06,72376.8,-9.61,-17.79,-21.17,0,*5A
1514660427.79,18012,6.06,72386.0,-9.61,-17.79,-21.17,0,*59
1514660429.05,18013,6.06,72390.8,-9.61,-17.79,-21.17,0,*58
1514660430.28,18014,6.06,72392.8,-9.61,-17.87,-21.17,0,*5E
1514660431.52,18015,6.06,72390.5,-9.65,-17.83,-21.17,0,*5F
1514660432.74,18016,6.06,72386.5,-9.63,-17.93,-21.17,0,*5B
1514660434.0,18017,6.06,72372.0,-9.65,-17.83,-20.83,0,*51
1514660435.25,18018,6.06,72360.0,-9.65,-17.79,-20.69,0,*5F
1514660436.46,18019,6.06,72366.0,-9.63,-17.69,-20.59,0,*5A
1514660437.69,18020,6.06,72366.8,-9.63,-17.93,-20.73,0,*5D
1514660438.95,18021,6.06,72376.8,-9.65,-17.97,-20.73,0,*5E
1514660440.17,18022,6.06,72372.0,-9.63,-18.11,-20.83,0,*55
1514660441.43,18023,6.06,72374.8,-9.65,-17.97,-20.69,0,*57
1514660442.63,18024,6.06,72376.3,-9.63,-18.11,-20.69,0,*57
1514660443.84,18025,6.06,72372.0,-9.63,-18.25,-20.73,0,*5A
1514660445.06,18026,6.06,72378.5,-9.63,-18.25,-20.83,0,*56
1514660446.32,18027,6.06,72374.0,-9.65,-18.17,-20.53,0,*5D
1514660447.55,18028,6.06,72382.5,-9.65,-18.25,-20.69,0,*5A
1514660448.78,18029,6.06,72382.3,-9.65,-18.25,-20.69,0,*5B
1514660450.01,18030,6.06,72378.0,-9.65,-18.25,-20.43,0,*5B
1514660451.27,18031,6.06,72378.8,-9.67,-18.31,-20.49,0,*57
1514660452.48,18032,6.06,72380.0,-9.67,-18.21,-20.43,0,*5F
1514660453.74,18033,6.06,72370.8,-9.67,-18.31,-20.35,0,*5E
1514660454.99,18034,6.06,72372.8,-9.67,-18.31,-20.35,0,*59
1514660456.2,18035,6.13,72378.5,-9.67,-18.45,-20.43,0,*5A
1514660457.41,18036,6.06,72378.3,-9.67,-18.45,-20.43,0,*59
1514660458.64,18037,6.06,72372.8,-9.67,-18.45,-20.49,0,*52
1514660459.87,18038,6.06,72374.0,-9.67,-18.45,-20.49,0,*5D
1514660461.11,18039,6.06,72376.8,-9.71,-18.35,-20.43,0,*56
1514660462.33,18040,6.06,72374.8,-9.71,-18.45,-20.35,0,*5E
1514660463.56,18041,6.06,72374.0,-9.71,-18.45,-20.35,0,*5F
1514660464.79,18042,6.06,72378.5,-9.71,-18.45,-20.35,0,*5C
1514660466.01,18043,6.06,72380.0,-9.71,-18.45,-20.35,0,*5D
1514660467.27,18044,6.06,72380.3,-9.71,-18.35,-20.35,0,*5D
1514660468.52,18045,6.06,72390.0,-9.73,-18.41,-20.35,0,*5D
1514660469.76,18046,6.06,72372.0,-9.73,-18.41,-20.25,0,*5F
1514660470.99,18047,6.06,72370.8,-9.73,-18.25,-20.25,0,*5C
1514660472.25,18048,6.06,72374.3,-9.73,-18.25,-20.19,0,*5C
1514660473.47,18049,6.06,72384.3,-9.73,-18.25,-20.09,0,*5C
1514660474.71,18050,6.06,72384.8,-9.73,-18.21,-20.09,0,*50
1514660475.91,18051,6.06,72380.3,-9.75,-18.11,-20.09,0,*54
1514660477.14,18052,6.06,72384.8,-9.73,-18.07,-20.05,0,*5A
1514660478.4,18053,6.06,72384.3,-9.73,-18.01,-20.05,0,*5D
1514660479.63,18054,6.06,72392.5,-9.75,-18.01,-20.05,0,*5C
1514660480.86,18055,6.06,72394.3,-9.73,-18.07,-20.05,0,*5D
1514660482.09,18056,6.06,72388.8,-9.75,-17.79,-20.05,0,*5E
1514660483.32,18057,6.06,72394.3,-9.75,-17.93,-20.05,0,*5B
1514660484.57,18058,6.06,72398.8,-9.73,-17.87,-20.19,0,*5A
1514660485.81,18059,6.06,72392.3,-9.75,-17.87,-20.19,0,*5D
1514660487.07,18060,6.06,72380.8,-9.73,-17.87,-20.19,0,*51
1514660488.28,18061,6.06,72380.0,-9.75,-17.87,-20.25,0,*59
1514660489.51,18062,6.06,72378.5,-9.77,-17.49,-19.99,0,*57
1514660490.79,18063,6.06,72386.8,-9.77,-17.55,-20.15,0,*55
1514660492.03,18064,6.06,72386.0,-9.77,-17.49,-20.09,0,*52
1514660493.29,18065,6.06,72386.5,-9.77,-17.41,-20.09,0,*5B
1514660494.55,18066,6.06,72386.5,-9.79,-17.41,-20.15,0,*5B
1514660495.78,18067,6.06,72380.8,-9.73,-17.31,-20.09,0,*5A
1514660497.04,18068,6.06,72390.0,-9.77,-17.35,-20.15,0,*58
1514660498.3,18069,6.06,72400.8,-9.77,-17.41,-20.29,0,*55
1514660499.56,18070,6.06,72390.3,-9.77,-17.21,-20.29,0,*5B
1514660500.79,18071,6.06,72380.5,-9.75,-16.75,-19.85,0,*54
1514660502.0,18072,6.06,72368.3,-9.75,-16.59,-19.75,0,*56
1514660503.21,18073,6.06,72386.5,-9.75,-16.89,-20.09,0,*5B
1514660504.44,18074,6.06,72388.5,-9.75,-16.97,-20.35,0,*5C
1514660505.7,18075,6.06,72386.3,-9.75,-17.17,-20.49,0,*5F
1514660506.99,18076,6.06,72376.0,-9.73,-17.07,-20.53,0,*50
1514660508.22,18077,6.06,72380.0,-9.75,-16.97,-20.49,0,*54
1514660509.45,18078,6.06,72376.3,-9.75,-17.03,-20.69,0,*55
1514660510.71,18079,6.06,72378.3,-9.75,-17.03,-20.79,0,*55
1514660511.97,18080,6.06,72388.0,-9.73,-17.21,-21.17,0,*5C
1514660513.2,18081,6.06,72382.8,-9.75,-17.21,-21.17,0,*5B
1514660514.46,18082,6.06,72392.8,-9.75,-17.21,-21.27,0,*5B
1514660515.72,18083,6.06,72394.3,-9.75,-17.03,-21.27,0,*5A
1514660516.98,18084,6.06,72386.5,-9.75,-17.17,-21.27,0,*58
1514660518.24,18085,6.06,72392.5,-9.75,-17.07,-21.33,0,*5D
1514660519.44,18086,6.06,72388.8,-9.75,-17.31,-21.43,0,*5C
1514660520.69,18087,6.06,72380.3,-9.75,-17.17,-21.57,0,*5C
1514660521.94,18088,6.06,72384.3,-9.75,-17.21,-21.57,0,*56
1514660523.19,18089,6.06,72390.3,-9.75,-17.07,-21.57,0,*53
1514660524.45,18090,6.06,72390.3,-9.73,-17.17,-21.63,0,*5B
1514660525.74,18091,6.06,72396.8,-9.73,-17.21,-21.87,0,*55
1514660526.94,18092,6.06,72392.5,-9.75,-17.31,-21.93,0,*54
1514660528.19,18093,6.06,72392.5,-9.75,-17.21,-21.97,0,*50
1514660529.42,18094,6.06,72398.5,-9.73,-17.31,-22.11,0,*5D
1514660530.64,18095,6.06,72388.5,-9.75,-17.31,-22.21,0,*59
1514660531.86,18096,6.06,72396.8,-9.75,-17.31,-22.21,0,*5A
1514660533.07,18097,6.06,72400.3,-9.75,-17.35,-22.27,0,*59
1514660534.3,18098,6.06,72400.3,-9.77,-17.35,-22.41,0,*54
1514660535.56,18099,6.06,72394.8,-9.77,-17.11,-22.27,0,*53
1514660536.79,18100,6.06,72398.0,-9.75,-16.89,-21.97,0,*58
1514660537.99,18101,6.06,72396.5,-9.75,-16.89,-22.11,0,*54
1514660539.22,18102,6.06,72390.3,-9.75,-16.97,-22.21,0,*5B
1514660540.41,18103,6.06,72394.0,-9.75,-17.31,-22.41,0,*51
1514660541.64,18104,6.06,72386.5,-9.75,-17.35,-22.73,0,*53
1514660542.9,18105,6.06,72388.3,-9.73,-17.59,-22.87,0,*55
1514660544.18,18106,6.06,72376.8,-9.73,-17.59,-23.03,0,*5B
1514660545.43,18107,6.06,72384.8,-9.73,-17.59,-22.87,0,*57
1514660546.71,18108,6.06,72364.8,-9.73,-17.59,-23.19,0,*5E
1514660547.96,18109,6.06,72368.5,-9.75,-17.79,-23.19,0,*5B
1514660549.19,18110,6.06,72366.8,-9.75,-17.73,-23.19,0,*59
1514660550.47,18111,6.06,72378.5,-9.73,-17.93,-23.49,0,*55
1514660551.69,18112,6.06,72374.0,-9.75,-18.07,-23.65,0,*5C
1514660552.92,18113,6.06,72372.3,-9.75,-18.07,-23.65,0,*5D
1514660554.12,18114,6.06,72368.0,-9.75,-18.21,-23.79,0,*53
1514660555.33,18115,6.06,72374.5,-9.75,-18.21,-23.79,0,*52
1514660556.57,18116,6.06,72380.0,-9.73,-18.21,-23.95,0,*55
1514660557.8,18117,6.06,72386.3,-9.75,-18.25,-23.95,0,*56
1514660559.02,18118,6.06,72384.0,-9.75,-18.25,-23.95,0,*59
1514660560.22,18119,6.06,72382.8,-9.75,-18.07,-23.79,0,*5A
1514660561.45,18120,6.06,72386.8,-9.75,-17.87,-23.49,0,*54
1514660562.68,18121,6.06,72396.0,-9.75,-17.87,-23.53,0,*5E
1514660563.92,18122,6.06,72388.8,-9.75,-17.79,-23.53,0,*5C
1514660565.17,18123,6.06,72386.3,-9.75,-17.79,-23.53,0,*5D
1514660566.42,18124,6.06,72386.5,-9.73,-18.01,-23.79,0,*54
1514660567.68,18125,6.06,72392.5,-9.73,-18.01,-23.79,0,*55
1514660568.92,18126,6.06,72402.0,-9.73,-18.21,-23.99,0,*5A
1514660570.15,18127,6.06,72404.0,-9.73,-18.21,-24.05,0,*59
1514660571.44,18128,6.06,72402.0,-9.73,-18.35,-24.21,0,*55
1514660572.66,18129,6.06,72402.3,-9.73,-18.49,-24.47,0,*5F
1514660573.89,18130,6.06,72402.8,-9.71,-18.49,-24.41,0,*53
1514660575.12,18131,6.06,72406.0,-9.73,-18.41,-24.31,0,*5F
1514660576.41,18132,6.06,72396.8,-9.73,-18.35,-24.21,0,*5E
1514660577.65,18133,6.06,72394.5,-9.71,-18.59,-24.41,0,*51
1514660578.85,18134,6.06,72396.5,-9.71,-18.65,-24.47,0,*5F
1514660580.08,18135,6.06,72392.5,-9.71,-18.89,-24.61,0,*58
1514660581.33,18136,6.06,72396.0,-9.71,-18.89,-24.71,0,*5A
1514660582.59,18137,6.06,72396.5,-9.71,-18.93,-24.71,0,*50
1514660583.82,18138,6.06,72396.0,-9.71,-18.93,-24.61,0,*5E
1514660585.08,18139,6.06,72400.5,-9.73,-18.93,-24.61,0,*5D
1514660586.33,18140,6.06,72398.3,-9.73,-19.03,-24.83,0,*57
1514660587.58,18141,6.06,72388.8,-9.73,-18.99,-24.67,0,*5E
1514660588.83,18142,6.06,72364.5,-9.73,-18.99,-24.67,0,*5D
1514660590.09,18143,6.06,72364.5,-9.73,-19.17,-24.83,0,*51
1514660591.31,18144,6.06,72364.8,-9.71,-19.23,-24.93,0,*52
1514660592.57,18145,6.06,72372.3,-9.67,-19.23,-24.87,0,*51
1514660593.83,18146,6.06,72368.3,-9.71,-19.27,-24.87,0,*51
1514660595.06,18147,6.06,72370.5,-9.71,-19.41,-24.93,0,*55
1514660596.27,18148,6.06,72384.3,-9.71,-19.51,-25.09,0,*59
1514660597.47,18149,6.06,72382.3,-9.71,-19.71,-25.13,0,*51
1514660598.7,18150,6.06,72390.0,-9.71,-19.85,-25.23,0,*51
1514660599.9,18151,6.06,72388.0,-9.67,-19.99,-25.23,0,*5A
1514660601.13,18152,6.06,72380.8,-9.67,-19.99,-25.29,0,*53
1514660602.33,18153,6.06,72394.3,-9.71,-19.99,-25.23,0,*5F
1514660603.56,18154,6.06,72390.5,-9.71,-20.15,-25.39,0,*5D
1514660604.8,18155,6.06,72384.5,-9.71,-20.19,-25.29,0,*51
1514660606.02,18156,6.06,72380.3,-9.71,-20.29,-25.29,0,*51
1514660607.25,18157,6.06,72398.5,-9.67,-20.43,-25.45,0,*51
1514660608.5,18158,6.06,72386.8,-9.71,-20.49,-25.29,0,*59
1514660609.73,18159,6.06,72380.8,-9.71,-20.49,-25.23,0,*52
1514660610.96,18160,6.06,72382.8,-9.71,-20.59,-25.29,0,*53
1514660612.19,18161,6.06,72380.3,-9.71,-20.73,-25.29,0,*5A
1514660613.44,18162,6.06,72382.5,-9.71,-20.79,-25.29,0,*53
1514660614.7,18163,6.06,72382.0,-9.71,-20.99,-25.55,0,*57
1514660615.92,18164,6.06,72386.3,-9.67,-20.93,-25.29,0,*56
1514660617.13,18165,6.06,72376.5,-9.71,-20.89,-25.13,0,*52
1514660618.36,18166,6.06,72378.8,-9.71,-20.99,-25.13,0,*50
1514660619.59,18167,6.06,72388.8,-9.71,-21.27,-25.39,0,*5D
1514660620.79,18168,6.13,72392.0,-9.71,-21.39,-25.39,0,*5D
1514660622.04,18169,6.06,72390.0,-9.73,-21.43,-25.45,0,*58
1514660623.3,18170,6.06,72398.0,-9.73,-21.57,-25.49,0,*59
1514660624.56,18171,6.06,72396.8,-9.73,-21.57,-25.35,0,*53
1514660625.76,18172,6.06,72388.3,-9.75,-21.63,-25.19,0,*5F
1514660626.98,18173,6.06,72376.3,-9.73,-21.63,-25.19,0,*58
1514660628.21,18174,6.06,72368.3,-9.73,-21.73,-25.19,0,*5E
1514660629.47,18175,6.06,72376.0,-9.73,-21.87,-25.19,0,*54
1514660630.7,18176,6.06,72386.3,-9.73,-21.93,-25.19,0,*52
1514660631.91,18177,6.06,72402.0,-9.75,-21.93,-25.13,0,*5F
1514660633.14,18178,6.06,72400.0,-9.75,-21.97,-25.13,0,*54
1514660634.4,18179,6.06,72394.5,-9.75,-21.87,-24.83,0,*5C
1514660635.63,18180,6.06,72384.5,-9.75,-21.87,-24.61,0,*56
1514660636.89,18181,6.06,72390.8,-9.75,-21.57,-24.21,0,*5E
1514660638.12,18182,6.06,72388.8,-9.75,-21.63,-24.21,0,*5A
1514660639.32,18183,6.06,72394.5,-9.75,-21.77,-24.35,0,*5B
1514660640.55,18184,6.06,72394.8,-9.75,-21.87,-24.31,0,*57
1514660641.8,18185,6.06,72380.0,-9.73,-21.77,-24.15,0,*59
1514660643.06,18186,6.06,72380.3,-9.73,-21.87,-24.05,0,*54
1514660644.29,18187,6.06,72388.3,-9.75,-22.07,-24.21,0,*5E
1514660645.49,18188,6.06,72394.8,-9.75,-22.27,-24.31,0,*52
1514660646.72,18189,6.06,72396.3,-9.73,-22.37,-24.31,0,*54
1514660647.98,18190,6.06,72400.0,-9.73,-22.37,-24.21,0,*5D
1514660649.23,18191,6.06,72390.8,-9.73,-22.53,-24.15,0,*59
1514660650.46,18192,6.06,72392.8,-9.73,-22.37,-24.05,0,*59
1514660651.69,18193,6.06,72394.5,-9.73,-22.53,-24.05,0,*5A
1514660652.89,18194,6.06,72396.5,-9.75,-22.41,-24.05,0,*58
1514660654.12,18195,6.06,72394.3,-9.73,-22.53,-24.05,0,*5C
1514660655.35,18196,6.06,72392.0,-9.75,-22.57,-23.99,0,*5F
1514660656.6,18197,6.06,72392.3,-9.73,-22.67,-23.99,0,*5B
1514660657.82,18198,6.06,72390.0,-9.75,-22.83,-23.95,0,*54
1514660659.07,18199,6.06,72386.5,-9.75,-22.73,-23.95,0,*5A
1514660660.32,18200,6.06,72380.3,-9.75,-22.73,-23.69,0,*5A
1514660661.56,18201,6.06,72370.8,-9.75,-22.73,-23.69,0,*5B
1514660662.79,18202,6.06,72362.5,-9.75,-22.83,-23.69,0,*57
1514660664.02,18203,6.06,72366.5,-9.75,-22.97,-23.53,0,*5A
1514660665.25,18204,6.06,72374.0,-9.75,-22.83,-23.49,0,*53
1514660666.47,18205,6.06,72372.0,-9.75,-22.87,-23.49,0,*56
1514660667.73,18206,6.06,72378.8,-9.77,-22.93,-23.53,0,*59
1514660668.98,18207,6.06,72376.5,-9.77,-22.87,-23.29,0,*50
1514660670.24,18208,6.06,72384.5,-9.77,-22.93,-23.29,0,*5A
1514660671.53,18209,6.06,72382.5,-9.77,-22.77,-23.29,0,*51
1514660672.79,18210,6.06,72380.3,-9.77,-22.87,-23.23,0,*5C
1514660674.05,18211,6.06,72380.3,-9.77,-22.87,-23.23,0,*5D
1514660675.29,18212,6.06,72382.5,-9.79,-22.93,-23.23,0,*55
1514660676.55,18213,6.06,72382.0,-9.79,-22.77,-23.03,0,*5C
1514660677.79,18214,6.06,72390.3,-9.79,-22.77,-22.93,0,*53
1514660679.02,18215,6.06,72394.0,-9.77,-22.87,-22.93,0,*53
1514660680.27,18216,6.06,72392.8,-9.79,-22.73,-22.77,0,*5F
1514660681.49,18217,6.06,72394.0,-9.79,-22.57,-22.63,0,*5D
1514660682.69,18218,6.06,72390.5,-9.79,-22.63,-22.63,0,*55
1514660683.89,18219,6.06,72396.3,-9.79,-22.63,-22.57,0,*53
1514660685.12,18220,6.06,72396.8,-9.79,-22.73,-22.63,0,*5F
1514660686.33,18221,6.06,72394.3,-9.79,-22.57,-22.57,0,*5F
1514660687.54,18222,6.06,72396.5,-9.79,-22.57,-22.41,0,*5B
1514660688.74,18223,6.06,72388.8,-9.79,-22.57,-22.41,0,*5A
1514660689.95,18224,6.06,72390.0,-9.81,-22.53,-22.37,0,*5F
1514660691.21,18225,6.06,72386.0,-9.79,-22.31,-22.17,0,*5F
1514660692.41,18226,6.06,72392.3,-9.79,-22.27,-22.11,0,*5D
1514660693.64,18227,6.06,72376.8,-9.77,-22.27,-22.11,0,*52
1514660694.87,18228,6.06,72376.0,-9.81,-22.21,-22.03,0,*51
1514660696.13,18229,6.06,72360.8,-9.77,-22.11,-21.83,0,*51
1514660697.36,18230,6.06,72364.0,-9.79,-22.11,-21.83,0,*57
1514660698.6,18231,6.06,72376.8,-9.77,-22.27,-21.93,0,*5C
1514660699.86,18232,6.06,72372.8,-9.81,-22.17,-21.83,0,*54
1514660701.09,18233,6.06,72370.0,-9.81,-22.17,-21.73,0,*5A
1514660702.29,18234,6.06,72374.5,-9.79,-22.11,-21.77,0,*58
1514660703.52,18235,6.06,72376.8,-9.81,-22.17,-21.73,0,*5C
1514660704.74,18236,6.06,72380.5,-9.81,-22.07,-21.83,0,*51
1514660705.97,18237,6.06,72390.0,-9.81,-22.03,-21.67,0,*5E
1514660707.19,18238,6.06,72392.0,-9.83,-22.03,-21.73,0,*56
1514660708.46,18239,6.06,72398.8,-9.83,-21.97,-21.67,0,*5C
1514660709.69,18240,6.06,72396.0,-9.81,-21.83,-21.43,0,*53
1514660710.94,18241,6.06,72384.3,-9.83,-21.73,-21.53,0,*5E
1514660712.17,18242,6.06,72382.8,-9.81,-21.67,-21.43,0,*5B
1514660713.42,18243,6.06,72372.8,-9.83,-21.67,-21.43,0,*58
1514660714.67,18244,6.06,72380.8,-9.83,-21.57,-21.43,0,*5C
1514660715.93,18245,6.06,72386.0,-9.83,-21.53,-21.39,0,*54
1514660717.18,18246,6.06,72398.5,-9.83,-21.13,-21.03,0,*5A
1514660718.41,18247,6.06,72392.8,-9.81,-21.39,-21.27,0,*57
1514660719.61,18248,6.06,72396.8,-9.81,-21.09,-20.93,0,*55
1514660720.83,18249,6.06,72390.5,-9.81,-20.63,-20.59,0,*5F
1514660722.09,18250,6.06,72380.0,-9.83,-20.43,-20.49,0,*56
1514660723.31,18251,6.06,72360.0,-9.81,-20.19,-20.29,0,*5C
1514660724.52,18252,6.06,72366.8,-9.79,-20.29,-20.39,0,*5A
1514660725.73,18253,6.06,72376.8,-9.79,-20.25,-20.39,0,*57
1514660726.96,18254,6.06,72384.8,-9.79,-20.53,-20.69,0,*54
1514660728.22,18255,6.06,72384.0,-9.77,-20.59,-20.83,0,*55
1514660729.49,18256,6.06,72388.5,-9.77,-20.59,-20.83,0,*56
1514660730.73,18257,6.06,72392.3,-9.79,-20.59,-20.99,0,*52
1514660732.01,18258,6.06,72402.3,-9.77,-20.53,-20.99,0,*59
1514660733.24,18259,6.06,72406.3,-9.79,-20.53,-21.09,0,*5E
1514660734.51,18260,6.06,72406.0,-9.77,-20.43,-20.99,0,*53
1514660735.8,18261,6.06,72402.8,-9.77,-20.53,-21.23,0,*53
1514660737.07,18262,6.06,72400.5,-9.77,-20.43,-21.23,0,*51
1514660738.3,18263,6.06,72400.3,-9.79,-20.29,-21.23,0,*52
1514660739.56,18264,6.06,72402.3,-9.77,-20.39,-21.33,0,*5B
1514660740.81,18265,6.06,72402.0,-9.77,-20.29,-21.33,0,*5B
1514660742.06,18266,6.06,72406.3,-9.77,-20.29,-21.33,0,*58
1514660743.25,18267,6.06,72404.3,-9.79,-20.29,-21.47,0,*54
1514660744.45,18268,6.06,72400.8,-9.79,-20.29,-21.39,0,*52
1514660745.67,18269,6.06,72402.3,-9.79,-20.09,-21.33,0,*5B
1514660746.9,18270,6.06,72400.0,-9.79,-20.15,-21.39,0,*54
1514660748.15,18271,6.06,72398.5,-9.77,-20.15,-21.47,0,*52
1514660749.39,18272,6.06,72400.3,-9.77,-19.99,-21.39,0,*56
1514660750.6,18273,6.06,72396.8,-9.79,-19.99,-21.47,0,*50
1514660751.83,18274,6.06,72398.3,-9.77,-19.95,-21.47,0,*55
1514660753.04,18275,6.06,72396.0,-9.79,-19.91,-21.39,0,*57
1514660754.26,18276,6.06,72398.5,-9.79,-19.81,-21.47,0,*5C
1514660755.48,18277,6.13,72402.5,-9.79,-19.81,-21.47,0,*5D
1514660756.73,18278,6.06,72396.0,-9.79,-19.81,-21.53,0,*57
1514660757.95,18279,6.06,72392.3,-9.79,-19.81,-21.63,0,*55
1514660759.2,18280,6.06,72398.8,-9.79,-19.81,-21.67,0,*57
1514660760.47,18281,6.06,72402.0,-9.77,-19.81,-21.67,0,*58
1514660761.71,18282,6.06,72402.0,-9.79,-19.75,-21.67,0,*5E
1514660763.0,18283,6.06,72400.8,-9.77,-19.61,-21.67,0,*54
1514660764.26,18284,6.06,72408.5,-9.79,-19.61,-21.67,0,*5D
1514660765.5,18285,6.06,72410.0,-9.79,-19.61,-21.77,0,*5D
1514660766.76,18286,6.06,72404.0,-9.79,-19.61,-21.83,0,*55
1514660768.02,18287,6.06,72402.0,-9.77,-19.47,-21.83,0,*5E
1514660769.23,18288,6.06,72390.5,-9.79,-19.47,-21.93,0,*5E
1514660770.44,18289,6.06,72386.0,-9.79,-19.51,-22.03,0,*52
1514660771.65,18290,6.06,72376.3,-9.79,-19.51,-22.03,0,*5A
1514660772.9,18291,6.06,72372.5,-9.77,-19.47,-21.97,0,*5C
1514660774.14,18292,6.06,72368.8,-9.79,-19.37,-21.97,0,*56
1514660775.37,18293,6.06,72372.3,-9.79,-19.37,-21.97,0,*57
1514660776.61,18294,6.06,72380.0,-9.77,-19.37,-22.11,0,*53
1514660777.9,18295,6.06,72384.3,-9.77,-19.31,-21.97,0,*59
1514660779.13,18296,6.06,72394.3,-9.79,-19.31,-22.03,0,*5A
1514660780.37,18297,6.06,72392.5,-9.75,-19.31,-22.11,0,*54
1514660781.6,18298,6.06,72400.8,-9.77,-19.51,-22.41,0,*5A
1514660782.81,18299,6.06,72392.8,-9.79,-19.37,-22.27,0,*55
1514660784.05,18300,6.06,72396.3,-9.79,-19.37,-22.31,0,*53
1514660785.31,18301,6.06,72394.0,-9.77,-19.23,-22.03,0,*58
1514660786.54,18302,6.06,72382.5,-9.79,-19.03,-21.97,0,*59
1514660787.81,18303,6.06,72386.5,-9.77,-19.17,-22.17,0,*58
1514660789.1,18304,6.06,72392.3,-9.77,-19.23,-22.31,0,*5C
1514660790.37,18305,6.06,72396.8,-9.77,-19.61,-22.63,0,*5C
1514660791.62,18306,6.06,72398.8,-9.77,-19.81,-22.93,0,*5E
1514660792.84,18307,6.06,72402.8,-9.79,-19.81,-22.93,0,*51
1514660794.05,18308,6.06,72404.8,-9.79,-19.91,-22.93,0,*5F
1514660795.26,18309,6.06,72404.8,-9.79,-19.95,-23.09,0,*58
1514660796.5,18310,6.06,72406.8,-9.77,-19.75,-22.87,0,*57
1514660797.79,18311,6.06,72398.0,-9.77,-19.61,-22.77,0,*5C
1514660799.0,18312,6.06,72402.3,-9.79,-19.51,-22.63,0,*57
1514660800.21,18313,6.06,72386.3,-9.79,-19.47,-22.63,0,*51
1514660801.44,18314,6.06,72382.5,-9.77,-19.47,-22.57,0,*5F
1514660802.7,18315,6.06,72376.3,-9.77,-19.51,-22.73,0,*5F
1514660803.97,18316,6.06,72370.8,-9.77,-19.51,-22.77,0,*58
1514660805.2,18317,6.06,72368.3,-9.77,-19.75,-22.93,0,*55
1514660806.48,18318,6.06,72374.8,-9.77,-19.81,-23.03,0,*59
1514660807.74,18319,6.06,72376.0,-9.77,-19.81,-22.93,0,*50
1514660809.0,18320,6.06,72382.5,-9.77,-19.65,-22.87,0,*55
1514660810.24,18321,6.06,72380.3,-9.77,-19.95,-23.09,0,*5C
1514660811.47,18322,6.06,72384.5,-9.77,-19.91,-23.09,0,*5B
1514660812.73,18323,6.06,72392.3,-9.77,-20.09,-23.23,0,*59
1514660813.96,18324,6.06,72392.3,-9.75,-20.09,-23.19,0,*55
1514660815.21,18325,6.13,72398.8,-9.75,-20.19,-23.23,0,*5C
1514660816.44,18326,6.06,72392.5,-9.77,-20.25,-23.39,0,*59
1514660817.64,18327,6.06,72394.0,-9.75,-20.25,-23.39,0,*5A
1514660818.91,18328,6.06,72396.8,-9.73,-20.35,-23.33,0,*58
1514660820.11,18329,6.06,72396.8,-9.75,-20.25,-23.39,0,*54
1514660821.36,18330,6.06,72394.8,-9.75,-20.35,-23.33,0,*57
1514660822.6,18331,6.06,72392.3,-9.77,-20.43,-23.43,0,*52
1514660823.84,18332,6.06,72396.3,-9.77,-20.43,-23.43,0,*51
1514660825.1,18333,6.06,72388.8,-9.77,-20.43,-23.53,0,*51
1514660826.33,18334,6.06,72388.0,-9.79,-20.69,-23.53,0,*50
1514660827.53,18335,6.06,72394.5,-9.79,-20.73,-23.59,0,*50
1514660828.77,18336,6.06,72392.0,-9.77,-20.59,-23.43,0,*5E
1514660830.02,18337,6.06,72398.3,-9.77,-20.73,-23.53,0,*56
1514660831.23,18338,6.13,72396.0,-9.79,-20.69,-23.43,0,*5D
1514660832.44,18339,6.06,72392.3,-9.79,-20.69,-23.43,0,*5C
1514660833.7,18340,6.06,72390.8,-9.77,-20.59,-23.29,0,*53
1514660834.93,18341,6.13,72390.3,-9.79,-20.69,-23.29,0,*5F
1514660836.18,18342,6.06,72378.3,-9.77,-20.69,-23.29,0,*52
1514660837.41,18343,6.06,72380.5,-9.77,-20.73,-23.39,0,*59
1514660838.61,18344,6.06,72374.5,-9.79,-20.73,-23.13,0,*58
1514660839.85,18345,6.06,72366.0,-9.77,-20.59,-23.13,0,*5F
1514660841.13,18346,6.06,72358.5,-9.77,-20.83,-23.29,0,*52
1514660842.4,18347,6.06,72366.3,-9.77,-20.99,-23.43,0,*54
1514660843.66,18348,6.06,72368.0,-9.77,-21.03,-23.43,0,*59
1514660844.89,18349,6.06,72372.0,-9.77,-21.09,-23.59,0,*59
1514660846.15,18350,6.06,72378.5,-9.77,-21.17,-23.53,0,*54
1514660847.4,18351,6.06,72380.0,-9.77,-21.17,-23.53,0,*55
1514660848.64,18352,6.06,72374.8,-9.77,-21.17,-23.43,0,*57
1514660849.88,18353,6.06,72380.0,-9.79,-21.23,-23.43,0,*5F
1514660851.12,18354,6.06,72386.5,-9.79,-21.23,-23.43,0,*58
1514660852.38,18355,6.06,72386.3,-9.77,-21.33,-23.43,0,*56
1514660853.63,18356,6.06,72396.3,-9.79,-21.33,-23.53,0,*5A
1514660854.84,18357,6.06,72402.3,-9.79,-21.39,-23.43,0,*50
1514660856.05,18358,6.06,72392.5,-9.79,-21.39,-23.43,0,*5F
1514660857.26,18359,6.06,72396.5,-9.79,-21.39,-23.43,0,*5E
1514660858.48,18360,6.06,72388.8,-9.79,-21.39,-23.29,0,*58
1514660859.68,18361,6.06,72396.0,-9.79,-21.39,-23.39,0,*58
1514660860.91,18362,6.06,72398.8,-9.79,-21.39,-23.29,0,*5A
1514660862.16,18363,6.06,72398.5,-9.81,-21.53,-23.33,0,*5B
1514660863.39,18364,6.06,72400.8,-9.81,-21.43,-23.19,0,*55
1514660864.62,18365,6.06,72408.8,-9.79,-21.39,-23.23,0,*57
1514660865.82,18366,6.06,72406.3,-9.81,-21.43,-23.13,0,*5D
1514660867.07,18367,6.06,72400.3,-9.81,-21.57,-23.29,0,*50
1514660868.33,18368,6.06,72400.5,-9.81,-21.53,-23.19,0,*58
1514660869.58,18369,6.06,72398.3,-9.81,-21.57,-23.29,0,*5E
1514660870.81,18370,6.06,72398.5,-9.81,-21.57,-23.13,0,*5F
1514660872.01,18371,6.06,72394.8,-9.81,-21.43,-22.93,0,*52
1514660873.27,18372,6.06,72398.0,-9.83,-21.53,-22.97,0,*56
1514660874.51,18373,6.06,72392.5,-9.81,-21.67,-22.97,0,*52
1514660875.73,18374,6.06,72390.5,-9.79,-21.39,-22.73,0,*53
1514660876.96,18375,6.06,72392.5,-9.83,-21.43,-22.83,0,*55
1514660878.18,18376,6.06,72392.3,-9.81,-21.57,-22.83,0,*51
1514660879.46,18377,6.06,72394.3,-9.83,-21.57,-22.77,0,*59
1514660880.69,18378,6.06,72396.8,-9.81,-21.27,-22.63,0,*56
1514660881.94,18379,6.06,72396.8,-9.81,-21.03,-22.21,0,*57
1514660883.17,18380,6.06,72394.3,-9.81,-21.09,-22.17,0,*5E
1514660884.4,18381,6.13,72394.8,-9.81,-21.03,-22.07,0,*54
1514660885.65,18382,6.13,72398.0,-9.83,-21.09,-22.17,0,*5E
1514660886.91,18383,6.06,72398.5,-9.79,-21.03,-21.97,0,*5B
1514660888.11,18384,6.06,72404.3,-9.79,-21.17,-22.03,0,*57
1514660889.32,18385,6.06,72404.0,-9.79,-21.17,-22.11,0,*55
1514660890.57,18386,6.06,72400.5,-9.77,-21.09,-21.83,0,*5F
1514660891.81,18387,6.13,72404.0,-9.79,-21.03,-21.77,0,*51
1514660893.06,18388,6.06,72402.0,-9.75,-21.03,-21.87,0,*5D
1514660894.27,18389,6.06,72394.8,-9.79,-21.17,-21.93,0,*50
1514660895.55,18390,6.06,72392.3,-9.77,-21.33,-21.97,0,*54
1514660896.84,18391,6.06,72390.3,-9.77,-21.23,-21.83,0,*51
1514660898.13,18392,6.06,72392.5,-9.77,-21.33,-21.83,0,*53
1514660899.38,18393,6.06,72388.8,-9.77,-21.03,-21.63,0,*5F
1514660900.65,18394,6.06,72390.8,-9.77,-20.89,-21.33,0,*5E
1514660901.91,18395,6.06,72386.8,-9.77,-20.73,-21.23,0,*5B
1514660903.14,18396,6.06,72390.8,-9.75,-20.79,-21.17,0,*57